Wind_Speed
10 10 10 11 12 13 14 14 14 13 13 12 12 11 11 10 10 10 9 9 9 8 8 8 7 8 8 8 8 7 6 7 7 6 6 6 7 6 6 6 6 6 6
8 9 10 11 11 12 13 12 12 12 12 11 11 10 10 10 10 9 9 8 8 8 7 7 7 7 7 7 7 6 6 6 6 6 6 6 6 5 5 5 5 6 6
8 8 9 10 10 11 11 11 11 11 11 10 9 9 9 9 9 9 8 8 7 7 7 6 7 7 6 6 6 6 6 6 6 5 5 5 5 5 5 5 5 5 5
6 6 8 9 10 10 11 10 10 10 9 9 8 8 7 8 8 8 7 7 6 6 6 6 6 6 6 6 5 5 5 5 5 5 5 5 5 5 5 5 5 5 5
5 5 7 8 9 9 10 10 9 9 8 8 7 7 7 7 7 7 7 6 6 6 6 6 6 6 6 6 5 5 5 5 5 5 5 5 5 5 5 4 5 5 4
4 4 6 7 8 8 8 8 8 8 7 7 6 6 6 6 6 6 6 6 5 5 5 5 5 5 5 5 5 4 4 5 5 5 5 5 5 4 4 4 4 4 5
4 5 6 6 6 7 7 7 7 7 7 6 6 6 5 5 5 5 6 5 4 4 4 4 4 4 5 5 4 4 4 4 4 4 4 4 4 4 3 4 4 4 5
4 5 5 5 5 6 6 6 6 6 5 5 5 5 5 4 4 5 5 4 3 4 4 4 4 4 4 4 4 4 4 4 4 4 4 4 4 4 3 3 3 4 4
3 4 4 4 5 5 5 5 5 5 5 4 4 5 4 4 4 4 4 3 3 4 3 4 3 3 4 4 4 4 4 4 4 4 4 4 4 3 3 3 3 4 4
2 3 3 3 4 4 4 4 4 4 4 3 3 3 3 3 3 3 3 3 3 3 3 3 3 3 3 3 4 4 4 4 4 3 3 3 3 3 3 3 4 4 5
2 2 2 2 3 3 3 3 3 3 3 2 2 2 2 2 2 2 2 3 2 2 2 3 3 3 3 3 3 3 3 3 3 3 3 4 3 3 3 3 4 4 4
1 2 2 2 2 2 2 3 2 2 2 2 2 2 2 2 2 2 2 2 2 1 2 2 2 2 3 3 3 3 3 3 3 2 3 3 3 3 3 3 3 4 3
1 1 2 2 2 2 2 2 2 2 1 1 1 1 0 1 2 1 1 1 1 1 2 2 2 1 2 2 3 3 3 3 3 3 3 3 3 3 3 3 2 3 3
1 1 1 2 3 2 2 1 2 2 1 1 1 1 1 2 2 2 2 2 1 2 2 2 2 2 2 2 2 2 3 3 3 3 3 3 3 3 3 3 3 3 3
0 1 1 3 3 3 3 2 3 3 3 3 3 2 2 2 2 2 3 3 3 3 2 2 2 2 2 2 2 3 3 3 3 3 4 3 3 3 3 3 3 3 3
1 1 2 2 3 3 3 3 4 4 4 4 4 3 3 3 3 3 3 3 3 3 3 3 3 3 3 3 3 3 3 3 4 5 5 4 4 4 4 3 4 4 4
3 3 3 3 4 5 5 5 5 4 4 4 5 4 4 5 5 5 4 4 4 4 4 4 4 4 3 3 4 4 4 4 5 5 5 4 4 4 4 4 4 4 4
5 5 5 5 5 6 7 7 7 6 6 5 6 6 6 6 6 6 5 5 4 4 5 5 5 5 4 4 4 4 4 5 5 5 5 5 4 4 4 4 5 5 5
5 5 6 6 7 7 7 7 8 7 7 7 7 6 7 7 7 7 6 6 5 6 6 6 6 6 6 6 5 5 5 5 5 5 5 5 4 5 5 5 5 6 6
6 7 7 7 7 7 8 8 8 8 8 8 8 8 8 8 8 8 8 8 8 7 7 7 7 7 7 8 7 7 6 7 7 7 6 6 6 6 6 6 7 7 7
7 8 8 8 9 9 9 9 9 9 9 8 8 9 9 9 9 9 9 9 9 9 9 8 8 8 8 8 8 8 8 8 7 7 7 7 7 7 7 7 8 8 8
8 9 9 9 9 9 8 9 9 10 10 9 9 9 9 9 10 10 10 10 10 10 10 9 9 9 9 9 9 8 8 8 8 8 8 8 8 8 8 8 8 8 9
9 9 9 9 9 8 9 9 9 9 10 10 10 10 9 9 10 10 11 11 10 10 10 10 9 9 10 9 9 9 9 9 9 9 9 9 9 9 9 9 9 9 10
10 10 10 10 10 9 8 8 9 10 10 10 10 9 10 10 11 11 11 11 11 10 10 11 11 10 10 10 10 9 9 9 9 9 9 10 10 10 10 9 9 10 10
11 11 11 11 11 9 9 9 9 10 10 11 10 10 10 11 11 11 11 11 10 10 10 11 11 11 10 10 10 10 10 10 10 10 10 10 10 10 10 9 9 9 9
12 12 12 12 11 10 9 10 10 11 11 11 11 11 11 11 11 11 11 11 11 11 10 10 10 10 10 10 10 11 11 11 11 11 10 11 11 11 11 11 11 10 10
Wind_Direction
98 102 98 95 95 93 93 93 92 90 88 85 84 85 84 84 85 86 88 89 91 92 95 95 88 86 80 77 76 78 80 78 72 69 62 61 61 63 65 71 76 73 73
95 100 103 100 98 97 96 94 92 91 89 87 86 87 85 84 84 85 86 85 88 90 90 89 83 78 75 71 70 72 73 70 68 64 59 54 57 59 61 63 69 70 70
95 95 100 101 100 100 99 96 94 92 91 90 86 85 84 83 81 83 84 83 85 87 89 82 74 72 69 65 64 68 69 65 65 63 57 52 56 55 54 59 70 70 70
95 95 98 102 101 101 100 98 96 95 93 91 88 86 85 81 79 79 78 78 80 83 84 79 72 69 64 59 60 65 66 64 62 61 54 53 54 52 49 59 69 69 70
98 101 105 105 104 103 101 99 99 98 95 92 88 86 85 80 76 74 72 68 69 70 71 71 68 63 57 52 55 59 61 59 57 57 56 49 49 50 50 58 67 69 69
108 107 107 107 105 104 102 100 98 98 97 95 90 84 83 80 74 69 65 61 62 65 67 67 64 58 51 47 50 54 58 55 52 53 52 46 44 47 46 52 59 57 59
112 104 101 102 102 101 99 96 96 96 95 94 87 83 79 76 71 68 63 61 58 57 62 60 56 48 43 42 43 44 46 47 42 43 42 42 40 41 45 40 43 49 55
113 105 98 99 99 98 95 95 95 93 95 93 84 83 77 73 68 63 60 61 58 51 48 47 44 37 35 37 32 34 34 31 33 35 34 37 36 42 47 36 32 45 45
114 108 102 104 105 101 97 96 92 90 86 86 90 87 79 68 64 58 53 53 60 51 41 36 38 33 32 33 26 25 25 23 22 24 26 26 28 36 33 30 28 37 31
140 121 113 112 111 109 104 103 97 89 85 82 94 86 74 67 65 58 54 54 52 44 37 27 23 22 25 23 22 23 16 13 10 11 14 14 19 23 23 28 33 32 30
153 148 133 136 124 120 120 120 114 98 94 95 100 98 87 67 55 51 49 48 41 35 30 19 14 15 20 17 14 12 2 359 356 1 1 6 13 19 16 18 29 25 28
131 157 154 154 146 136 140 141 138 122 105 106 104 94 81 51 38 44 42 40 32 24 14 12 19 8 13 13 7 359 358 0 356 345 345 352 358 4 4 6 18 13 12
139 129 147 167 166 165 161 158 155 147 136 135 115 88 32 352 356 2 359 10 16 348 340 353 4 0 354 350 349 351 355 357 349 337 335 342 347 351 351 353 13 13 2
167 168 173 172 175 179 184 192 186 183 196 237 247 264 287 306 323 320 304 278 291 303 313 334 344 320 318 316 320 333 344 342 338 335 332 333 339 341 337 337 342 343 348
214 188 214 196 187 200 213 224 221 225 241 257 255 265 282 297 304 309 307 276 275 276 284 310 321 311 303 299 289 302 320 333 327 322 319 315 315 321 320 315 323 319 324
269 253 247 227 215 221 237 245 246 246 251 257 259 273 289 297 299 300 288 280 281 276 277 286 292 301 304 293 280 283 301 315 315 315 312 303 300 300 304 302 305 307 307
269 270 270 254 236 243 254 256 249 249 245 246 254 269 285 290 290 288 282 275 276 275 277 276 275 284 292 291 280 278 290 300 309 312 313 304 295 294 295 293 293 299 307
273 272 267 261 254 253 256 254 251 247 243 246 254 264 275 280 283 279 275 269 267 268 272 276 273 271 278 284 283 281 284 296 305 308 309 307 298 290 292 291 293 300 304
276 273 269 262 260 256 254 252 251 246 245 251 258 265 268 273 275 272 269 262 262 268 271 276 275 274 275 274 277 277 282 289 295 301 300 299 294 287 289 286 288 295 298
279 277 275 262 260 255 251 250 249 245 247 250 257 263 266 268 269 268 265 259 262 265 268 273 277 275 276 272 274 275 274 281 289 293 293 290 289 288 286 284 288 295 297
278 280 282 271 270 259 251 251 247 246 250 253 258 263 267 265 265 268 265 262 262 263 265 270 276 277 275 271 269 270 274 278 283 288 287 287 286 286 284 286 290 293 295
279 282 283 277 270 264 258 256 252 248 251 255 257 263 264 260 258 264 265 265 264 264 267 268 272 273 271 268 269 270 272 275 277 285 286 286 285 283 284 288 290 291 294
279 279 281 277 270 263 265 260 255 253 247 254 257 258 263 260 258 261 262 262 263 264 264 266 268 267 265 266 267 267 269 273 276 281 284 285 282 281 282 286 289 289 290
276 272 272 271 267 261 262 258 252 256 254 255 258 255 261 263 258 257 257 259 260 264 265 264 265 262 261 263 266 267 267 271 276 279 282 285 283 279 280 281 287 290 289
273 271 268 266 261 256 255 253 252 255 257 259 259 256 260 263 259 256 258 258 258 262 266 264 264 259 255 258 261 262 265 269 274 277 279 281 281 280 279 277 282 287 287
270 270 268 263 255 256 255 252 254 258 258 257 259 259 263 265 260 256 255 258 258 259 263 260 257 256 254 253 256 259 263 266 271 276 279 279 278 278 278 279 281 283 285
Height
5879 5879 5879 5880 5881 5881 5882 5883 5884 5885 5885 5886 5887 5888 5888 5889 5889 5890 5890 5890 5891 5891 5891 5891 5891 5892 5892 5892 5892 5892 5892 5892 5892 5892 5891 5891 5891 5891 5890 5890 5890 5890 5890
5881 5881 5881 5882 5882 5883 5884 5885 5886 5886 5887 5888 5889 5890 5890 5891 5891 5891 5892 5892 5892 5893 5893 5893 5893 5893 5893 5893 5893 5893 5893 5893 5893 5893 5892 5892 5892 5891 5891 5891 5891 5891 5891
5883 5883 5883 5883 5884 5885 5886 5887 5887 5888 5889 5890 5890 5891 5892 5892 5893 5893 5893 5893 5894 5894 5894 5894 5894 5894 5894 5894 5894 5894 5894 5894 5893 5893 5893 5893 5892 5892 5892 5892 5891 5891 5891
5884 5884 5885 5885 5886 5886 5887 5888 5889 5890 5890 5891 5892 5892 5893 5894 5894 5894 5895 5895 5895 5895 5895 5895 5895 5895 5895 5895 5895 5895 5895 5894 5894 5894 5894 5893 5893 5893 5893 5892 5892 5892 5892
5886 5886 5886 5886 5887 5888 5889 5889 5890 5891 5891 5892 5893 5893 5894 5895 5895 5896 5896 5896 5896 5896 5896 5896 5896 5896 5896 5896 5896 5896 5895 5895 5895 5895 5894 5894 5894 5894 5893 5893 5893 5893 5893
5886 5887 5887 5887 5888 5889 5890 5890 5891 5892 5892 5893 5894 5894 5895 5896 5896 5897 5897 5897 5897 5897 5897 5897 5897 5897 5897 5897 5897 5897 5896 5896 5896 5895 5895 5895 5895 5894 5894 5894 5893 5893 5893
5887 5888 5888 5889 5890 5890 5891 5891 5892 5893 5893 5894 5895 5895 5896 5897 5897 5897 5898 5898 5898 5898 5898 5898 5898 5898 5898 5898 5897 5897 5897 5897 5896 5896 5896 5896 5895 5895 5895 5894 5894 5894 5894
5888 5888 5889 5890 5890 5891 5892 5892 5893 5893 5894 5895 5895 5896 5897 5897 5898 5898 5898 5898 5898 5899 5899 5899 5899 5898 5898 5898 5898 5897 5897 5897 5897 5897 5896 5896 5896 5896 5895 5895 5895 5895 5895
5889 5889 5890 5891 5891 5892 5893 5893 5894 5894 5894 5895 5896 5896 5897 5897 5898 5898 5899 5899 5899 5899 5899 5899 5899 5899 5899 5898 5898 5898 5898 5898 5898 5897 5897 5897 5896 5896 5896 5896 5896 5896 5895
5889 5890 5890 5891 5892 5893 5893 5894 5894 5895 5895 5896 5896 5896 5897 5897 5898 5898 5899 5899 5899 5899 5899 5899 5899 5899 5899 5899 5898 5898 5898 5898 5898 5898 5898 5898 5897 5897 5897 5896 5896 5896 5896
5889 5890 5891 5892 5892 5893 5894 5894 5895 5896 5896 5896 5896 5897 5897 5898 5898 5898 5899 5899 5899 5900 5900 5900 5899 5899 5899 5899 5899 5898 5898 5898 5898 5898 5898 5898 5897 5897 5897 5897 5897 5897 5896
5890 5890 5891 5892 5893 5893 5894 5895 5895 5896 5896 5897 5897 5897 5898 5898 5898 5899 5899 5899 5899 5899 5900 5900 5899 5899 5899 5899 5899 5899 5898 5898 5898 5898 5898 5898 5898 5897 5897 5897 5897 5897 5897
5890 5890 5891 5892 5893 5893 5894 5895 5895 5896 5896 5897 5897 5898 5898 5898 5898 5898 5899 5899 5899 5899 5899 5899 5899 5899 5899 5899 5899 5899 5898 5898 5898 5898 5898 5898 5898 5898 5897 5897 5897 5897 5897
5890 5890 5891 5892 5892 5893 5894 5895 5895 5896 5896 5897 5897 5897 5898 5898 5898 5898 5898 5898 5899 5899 5899 5899 5899 5899 5899 5899 5899 5899 5898 5898 5898 5898 5898 5898 5898 5898 5897 5897 5897 5897 5896
5890 5890 5891 5892 5893 5893 5894 5895 5895 5895 5896 5897 5897 5897 5897 5898 5898 5897 5897 5897 5898 5898 5898 5899 5899 5899 5899 5899 5899 5899 5898 5898 5898 5898 5898 5898 5897 5897 5897 5897 5897 5896 5896
5890 5890 5891 5891 5892 5893 5893 5894 5894 5895 5895 5896 5896 5897 5897 5897 5897 5897 5897 5896 5897 5897 5898 5898 5898 5898 5898 5898 5898 5898 5898 5898 5898 5897 5897 5897 5897 5897 5897 5897 5896 5896 5896
5889 5889 5890 5891 5891 5892 5893 5893 5893 5894 5894 5895 5896 5896 5896 5896 5896 5896 5896 5896 5896 5897 5897 5897 5897 5897 5898 5898 5897 5898 5898 5897 5897 5897 5896 5896 5896 5896 5896 5896 5896 5896 5895
5888 5889 5889 5890 5890 5891 5891 5892 5892 5893 5893 5894 5895 5895 5895 5895 5895 5895 5895 5895 5896 5896 5896 5896 5896 5897 5897 5897 5897 5897 5897 5897 5896 5896 5896 5896 5896 5896 5895 5895 5895 5895 5895
5887 5888 5888 5888 5889 5889 5890 5890 5891 5892 5892 5893 5893 5894 5894 5894 5894 5894 5894 5894 5894 5895 5895 5895 5896 5896 5896 5896 5896 5896 5896 5896 5896 5896 5895 5895 5895 5895 5895 5895 5894 5894 5894
5887 5887 5887 5887 5887 5888 5888 5889 5889 5890 5891 5891 5892 5892 5892 5893 5893 5893 5893 5893 5893 5893 5894 5894 5894 5894 5894 5894 5895 5895 5895 5895 5895 5895 5894 5894 5894 5894 5894 5894 5894 5893 5893
5886 5885 5885 5885 5886 5886 5887 5887 5887 5888 5889 5890 5890 5890 5891 5891 5891 5891 5891 5891 5891 5892 5892 5893 5893 5893 5893 5893 5894 5894 5894 5894 5894 5894 5893 5893 5893 5893 5893 5892 5892 5892 5891
5884 5884 5884 5884 5884 5884 5884 5885 5885 5886 5887 5887 5887 5888 5888 5889 5889 5889 5889 5889 5889 5890 5890 5891 5891 5891 5891 5892 5892 5892 5892 5893 5893 5892 5892 5892 5891 5891 5891 5891 5890 5890 5890
5882 5882 5882 5882 5882 5882 5882 5883 5883 5884 5885 5885 5885 5886 5886 5886 5887 5887 5887 5887 5887 5887 5888 5888 5889 5889 5889 5890 5890 5891 5891 5891 5891 5891 5890 5890 5890 5890 5889 5889 5889 5888 5888
5880 5880 5880 5880 5880 5880 5880 5881 5882 5882 5882 5883 5884 5884 5884 5884 5885 5885 5885 5885 5885 5885 5885 5886 5887 5887 5887 5888 5888 5888 5889 5889 5889 5889 5889 5888 5888 5888 5887 5887 5887 5886 5886
5877 5877 5877 5877 5878 5878 5879 5880 5880 5880 5881 5881 5881 5882 5882 5882 5882 5883 5882 5882 5883 5883 5883 5884 5884 5884 5885 5885 5886 5886 5887 5887 5887 5887 5887 5886 5886 5886 5885 5885 5885 5885 5884
5875 5874 5874 5874 5875 5876 5876 5877 5878 5878 5878 5879 5879 5879 5880 5880 5880 5880 5880 5880 5881 5881 5881 5882 5882 5882 5883 5883 5884 5884 5885 5885 5885 5885 5885 5884 5884 5884 5883 5883 5883 5882 5882